• In Deutschland
  • Länderverzeichnis
  • Für 7 Tage
  • Wassertemperatur
  • Satellitenkarten
  • Wetterkarte
  • Widgets
  • user-avatar
    Anmelden

    Stündliche Wetter Quito

    Heute, 17 Januar, Mittwoch

    Zeit Temperatur Niederschläge Wind Luftdruck Luftfeuchtigkeit
    00:00 +16°C° 0 mm 1 m/S 621 mmHg 93%
    01:00 +16°C° 0 mm 1 m/S 621 mmHg 94%
    02:00 +16°C° 0,2 mm 1 m/S 621 mmHg 94%
    03:00 +15°C° 0,2 mm 1 m/S 621 mmHg 95%
    04:00 +15°C° 0,2 mm 1 m/S 621 mmHg 95%
    05:00 +16°C° 0,5 mm 1 m/S 621 mmHg 94%
    06:00 +16°C° 0,5 mm 1 m/S 622 mmHg 93%
    07:00 +16°C° 0,5 mm 0 m/S 622 mmHg 92%
    08:00 +20°C° 0,4 mm 1 m/S 623 mmHg 87%
    09:00 +21°C° 0,4 mm 1 m/S 623 mmHg 82%
    10:00 +23°C° 0,4 mm 1 m/S 624 mmHg 77%
    11:00 +24°C° 0,5 mm 1 m/S 624 mmHg 71%
    12:00 +25°C° 0,5 mm 1 m/S 623 mmHg 66%
    13:00 +27°C° 0,5 mm 2 m/S 623 mmHg 60%
    14:00 +26°C° 1,2 mm 2 m/S 622 mmHg 65%
    15:00 +25°C° 1,2 mm 2 m/S 622 mmHg 70%
    16:00 +24°C° 1,2 mm 2 m/S 621 mmHg 75%
    17:00 +21°C° 1,4 mm 2 m/S 621 mmHg 80%
    18:00 +20°C° 1,4 mm 2 m/S 620 mmHg 86%
    19:00 +18°C° 1,4 mm 2 m/S 620 mmHg 91%
    20:00 +17°C° 0,4 mm 2 m/S 621 mmHg 92%
    21:00 +18°C° 0,4 mm 1 m/S 621 mmHg 93%
    22:00 +18°C° 0,4 mm 1 m/S 621 mmHg 94%
    23:00 +16°C° 0,5 mm 1 m/S 621 mmHg 94%

    Morgen, 18 Januar, Donnerstag

    Zeit Temperatur Niederschläge Wind Luftdruck Luftfeuchtigkeit
    00:00 +16°C° 0,5 mm 1 m/S 621 mmHg 95%
    01:00 +16°C° 0,5 mm 1 m/S 621 mmHg 95%
    02:00 +16°C° 0,5 mm 1 m/S 620 mmHg 95%
    03:00 +16°C° 0,5 mm 1 m/S 620 mmHg 96%
    04:00 +16°C° 0,5 mm 1 m/S 620 mmHg 96%
    05:00 +16°C° 0,5 mm 1 m/S 621 mmHg 96%
    06:00 +16°C° 0,5 mm 1 m/S 621 mmHg 96%
    07:00 +16°C° 0,5 mm 1 m/S 621 mmHg 95%
    08:00 +18°C° 0,3 mm 1 m/S 622 mmHg 92%
    09:00 +19°C° 0,3 mm 1 m/S 622 mmHg 89%
    10:00 +20°C° 0,3 mm 1 m/S 622 mmHg 86%
    11:00 +21°C° 0,7 mm 1 m/S 622 mmHg 85%
    12:00 +21°C° 0,7 mm 1 m/S 622 mmHg 83%
    13:00 +22°C° 0,7 mm 1 m/S 622 mmHg 81%
    14:00 +22°C° 1,1 mm 1 m/S 621 mmHg 83%
    15:00 +21°C° 1,1 mm 1 m/S 621 mmHg 85%
    16:00 +21°C° 1,1 mm 1 m/S 620 mmHg 86%
    17:00 +20°C° 0,7 mm 1 m/S 620 mmHg 89%
    18:00 +19°C° 0,7 mm 1 m/S 620 mmHg 92%
    19:00 +18°C° 0,7 mm 1 m/S 620 mmHg 95%
    20:00 +18°C° 0,2 mm 1 m/S 621 mmHg 95%
    21:00 +16°C° 0,2 mm 1 m/S 621 mmHg 95%
    22:00 +16°C° 0,2 mm 1 m/S 621 mmHg 96%
    23:00 +16°C° 0 mm 1 m/S 621 mmHg 96%

    übermorgen, 19 Januar, Freitag

    Zeit Temperatur Niederschläge Wind Luftdruck Luftfeuchtigkeit
    00:00 +16°C° 0 mm 1 m/S 620 mmHg 96%
    01:00 +16°C° 0 mm 1 m/S 620 mmHg 97%
    02:00 +16°C° 0,2 mm 1 m/S 620 mmHg 97%
    03:00 +16°C° 0,2 mm 1 m/S 620 mmHg 97%
    04:00 +16°C° 0,2 mm 1 m/S 620 mmHg 97%
    05:00 +16°C° 0,2 mm 1 m/S 620 mmHg 97%
    06:00 +16°C° 0,2 mm 1 m/S 620 mmHg 97%
    07:00 +16°C° 0,2 mm 1 m/S 621 mmHg 96%
    08:00 +18°C° 0,8 mm 1 m/S 621 mmHg 95%
    09:00 +19°C° 0,8 mm 1 m/S 621 mmHg 94%
    10:00 +19°C° 0,8 mm 1 m/S 622 mmHg 92%
    11:00 +19°C° 1,3 mm 1 m/S 621 mmHg 92%
    12:00 +19°C° 1,3 mm 1 m/S 621 mmHg 91%
    13:00 +19°C° 1,3 mm 1 m/S 621 mmHg 91%
    14:00 +20°C° 0,5 mm 1 m/S 620 mmHg 90%
    15:00 +20°C° 0,5 mm 1 m/S 620 mmHg 89%
    16:00 +20°C° 0,5 mm 1 m/S 620 mmHg 88%
    17:00 +19°C° 0,7 mm 1 m/S 620 mmHg 91%
    18:00 +19°C° 0,7 mm 1 m/S 620 mmHg 94%
    19:00 +18°C° 0,7 mm 1 m/S 620 mmHg 97%
    20:00 +16°C° 0,7 mm 1 m/S 621 mmHg 97%
    21:00 +16°C° 0,7 mm 1 m/S 621 mmHg 97%
    22:00 +16°C° 0,7 mm 1 m/S 621 mmHg 97%
    23:00 +16°C° 1,1 mm 1 m/S 621 mmHg 97%

    20 Januar, Samstag

    Zeit Temperatur Niederschläge Wind Luftdruck Luftfeuchtigkeit
    00:00 +16°C° 1,1 mm 1 m/S 621 mmHg 97%
    01:00 +16°C° 1,1 mm 1 m/S 620 mmHg 97%
    02:00 +15°C° 0,4 mm 0 m/S 620 mmHg 97%
    03:00 +15°C° 0,4 mm 0 m/S 620 mmHg 97%
    04:00 +15°C° 0,4 mm 0 m/S 620 mmHg 97%
    05:00 +15°C° 0,1 mm 0 m/S 620 mmHg 96%
    06:00 +15°C° 0,1 mm 0 m/S 621 mmHg 96%
    07:00 +15°C° 0,1 mm 0 m/S 621 mmHg 96%
    08:00 +16°C° 0,2 mm 0 m/S 622 mmHg 92%
    09:00 +18°C° 0,2 mm 0 m/S 622 mmHg 89%
    10:00 +21°C° 0,2 mm 1 m/S 623 mmHg 86%
    11:00 +21°C° 0,9 mm 1 m/S 622 mmHg 86%
    12:00 +21°C° 0,9 mm 1 m/S 621 mmHg 86%
    13:00 +21°C° 0,9 mm 1 m/S 621 mmHg 86%
    14:00 +21°C° 1,5 mm 1 m/S 621 mmHg 87%
    15:00 +21°C° 1,5 mm 1 m/S 620 mmHg 87%
    16:00 +21°C° 1,5 mm 1 m/S 620 mmHg 88%
    17:00 +20°C° 1,3 mm 1 m/S 620 mmHg 90%
    18:00 +19°C° 1,3 mm 1 m/S 620 mmHg 92%
    19:00 +18°C° 1,3 mm 1 m/S 621 mmHg 94%
    20:00 +18°C° 0,3 mm 1 m/S 621 mmHg 94%
    21:00 +18°C° 0,3 mm 1 m/S 621 mmHg 95%
    22:00 +16°C° 0,3 mm 1 m/S 622 mmHg 95%
    23:00 +16°C° 0 mm 1 m/S 621 mmHg 96%

    21 Januar, Sonntag

    Zeit Temperatur Niederschläge Wind Luftdruck Luftfeuchtigkeit
    00:00 +16°C° 0 mm 1 m/S 621 mmHg 96%
    01:00 +15°C° 0 mm 1 m/S 620 mmHg 97%
    02:00 +15°C° 0,1 mm 1 m/S 620 mmHg 97%
    03:00 +15°C° 0,1 mm 1 m/S 620 mmHg 97%
    04:00 +15°C° 0,1 mm 2 m/S 620 mmHg 97%
    05:00 +16°C° 0 mm 2 m/S 621 mmHg 96%
    06:00 +16°C° 0 mm 2 m/S 621 mmHg 95%
    07:00 +16°C° 0 mm 2 m/S 622 mmHg 94%
    08:00 +18°C° 0,2 mm 3 m/S 622 mmHg 86%
    09:00 +20°C° 0,2 mm 3 m/S 623 mmHg 78%
    10:00 +22°C° 0,2 mm 3 m/S 623 mmHg 71%
    11:00 +22°C° 0,8 mm 3 m/S 623 mmHg 70%
    12:00 +22°C° 0,8 mm 3 m/S 622 mmHg 70%
    13:00 +24°C° 0,8 mm 3 m/S 622 mmHg 70%
    14:00 +24°C° 1 mm 3 m/S 621 mmHg 72%
    15:00 +22°C° 1 mm 3 m/S 621 mmHg 73%
    16:00 +22°C° 1 mm 3 m/S 620 mmHg 75%
    17:00 +21°C° 0,8 mm 3 m/S 620 mmHg 80%
    18:00 +19°C° 0,8 mm 2 m/S 620 mmHg 85%
    19:00 +18°C° 0,8 mm 2 m/S 620 mmHg 90%
    20:00 +17°C° 0,2 mm 2 m/S 621 mmHg 91%
    21:00 +17°C° 0,2 mm 2 m/S 621 mmHg 92%
    22:00 +17°C° 0,2 mm 2 m/S 621 mmHg 94%
    23:00 +17°C° 0,1 mm 2 m/S 621 mmHg 94%

    22 Januar, Montag

    Zeit Temperatur Niederschläge Wind Luftdruck Luftfeuchtigkeit
    00:00 +16°C° 0,1 mm 2 m/S 621 mmHg 94%
    01:00 +16°C° 0,1 mm 2 m/S 620 mmHg 94%
    02:00 +16°C° 0,2 mm 2 m/S 620 mmHg 95%
    03:00 +16°C° 0,2 mm 2 m/S 620 mmHg 95%
    04:00 +16°C° 0,2 mm 2 m/S 620 mmHg 95%
    05:00 +16°C° 0,1 mm 2 m/S 621 mmHg 95%
    06:00 +16°C° 0,1 mm 2 m/S 621 mmHg 95%
    07:00 +16°C° 0,1 mm 2 m/S 621 mmHg 94%
    08:00 +17°C° 0,4 mm 2 m/S 622 mmHg 93%
    09:00 +17°C° 0,4 mm 2 m/S 622 mmHg 92%
    10:00 +18°C° 0,4 mm 2 m/S 622 mmHg 91%
    11:00 +19°C° 0,8 mm 2 m/S 621 mmHg 88%
    12:00 +20°C° 0,8 mm 3 m/S 621 mmHg 85%
    13:00 +20°C° 0,8 mm 3 m/S 621 mmHg 82%
    14:00 +21°C° 1,2 mm 3 m/S 620 mmHg 83%
    15:00 +21°C° 1,2 mm 3 m/S 620 mmHg 83%
    16:00 +21°C° 1,2 mm 3 m/S 620 mmHg 83%
    17:00 +20°C° 1,7 mm 3 m/S 620 mmHg 86%
    18:00 +18°C° 1,7 mm 3 m/S 620 mmHg 89%
    19:00 +17°C° 1,7 mm 2 m/S 620 mmHg 92%
    20:00 +17°C° 1 mm 2 m/S 620 mmHg 93%
    21:00 +17°C° 1 mm 2 m/S 621 mmHg 93%
    22:00 +17°C° 1 mm 2 m/S 621 mmHg 94%
    23:00 +16°C° 0,4 mm 2 m/S 621 mmHg 95%
    Mehr zeigen